Regional Weather Roundup
Issued by NWS

Home | Current Version | Previous Version | Graphics & Text | Print | Product List | Glossary On
Versions: 1 2 3 4 5 6 7 8 9 10 11 12 13 14 15 16 17 18 19 20 21 22 23 24 25 26 27 28 29 30 31 32 33 34 35 36 37 38 39 40 41 42 43 44 45 46 47 48 49 50
000
ASUS43 KLOT 180410
RWRIL

ILLINOIS REGIONAL WEATHER ROUNDUP
NATIONAL WEATHER SERVICE CHICAGO/ROMEOVILLE IL
1100 PM CDT THU APR 17 2014

NOTE: "FAIR" INDICATES FEW OR NO CLOUDS BELOW 12,000 FEET WITH NO
SIGNIFICANT WEATHER AND/OR OBSTRUCTIONS TO VISIBILITY.

* THESE STATIONS ARE NOT UNDER NWS QUALITY CONTROL. THEY ALSO MAY NOT
  REPORT WEATHER SUCH AS PRECIPITATION OR FOG.

ILZ001-002-007-009-015-016-024-180500-
NORTHWEST ILLINOIS

CITY           SKY/WX    TMP DP  RH WIND       PRES   REMARKS
MOLINE         MOCLDY    42  34  73 W5        30.27S
STERLING*      MOCLDY    46  36  66 NW6       30.26S
SAVANNA*       PTCLDY    45  35  67 NW6       30.27R
$$

ILZ003-004-008-010-011-017-018-180500-
NORTH CENTRAL ILLINOIS

CITY           SKY/WX    TMP DP  RH WIND       PRES   REMARKS
ROCKFORD       CLOUDY    47  36  65 NW5       30.26F
FREEPORT*      MOCLDY    44  37  77 W6        30.28S
ROCHELLE*      MOCLDY    41  36  81 W7        30.25F
DE KALB*       MOCLDY    46  36  69 W6        30.25S
PERU*          MOCLDY    46  37  71 CALM      30.26S
$$

ILZ005-006-012>014-019>023-180500-
NORTHEAST ILLINOIS

CITY           SKY/WX    TMP DP  RH WIND       PRES   REMARKS
CHICAGO-OHARE  CLOUDY    51  37  58 W3        30.24S
CHICAGO-MIDWAY CLOUDY    53  39  59 CALM      30.25R
AURORA         MOCLDY    45  38  76 CALM      30.25S
LANSING*       CLOUDY    53  38  56 W3        30.25S
WAUKEGAN       MOCLDY    41  36  82 CALM      30.24S
DUPAGE AIRPORT MOCLDY    47  38  71 W6        30.24S
KANKAKEE*      CLOUDY    51  42  72 W3        30.27R
WHEELING       MOCLDY    49  38  65 E3        30.26S
MORRIS*        CLOUDY    49  37  63 NW3       30.25S
ROMEOVILLE*    CLOUDY    50  39  65 W5        30.25S
NORTHERLY ISL    N/A     45  39  79 NW3         N/A
$$

LMZ740>746-180500-
SOUTHERN LAKE MICHIGAN

STATION/POSITION SKY/WX   TEMP    WIND        PRES    VSBY  WAVE
                          AIR SEA DIR/SP/G                  HT/PER
                          (F)     (DEG/KT/KT) (MB)    (MI)  (FT/S)
WAUKEGAN HARBOR            45     190/  3/  3 1025.4F
HARRISON CRIB              46      60/ 11/ 11   N/A
BURNHAM HARBOR             46     320/  3/  7   N/A
CALUMET HARBOR             55     270/  3/  5 1024.6S
MICHIGAN CITY              46      30/  4/  5   N/A
$$

ILZ025>027-034>036-040-047-049-050-058-095>099-180500-
WEST-CENTRAL ILLINOIS

CITY           SKY/WX    TMP DP  RH WIND       PRES   REMARKS
QUINCY         CLOUDY    46  37  71 CALM      30.27F
GALESBURG*     MOCLDY    41  37  83 CALM      30.27S
MACOMB*        MOCLDY    41  36  81 W6        30.29F
JACKSONVILLE*  CLOUDY    48  38  69 N3        30.29S
PITTSFIELD*    CLOUDY    48  39  70 N5        30.29S
$$

ILZ028>032-037-038-041>044-048-051>054-059>061-180500-
CENTRAL ILLINOIS

CITY           SKY/WX    TMP DP  RH WIND       PRES   REMARKS
PONTIAC        CLOUDY    52  39  62 W6        30.27R
BLOOMINGTON    CLOUDY    49  37  63 NW7       30.28R
DECATUR        CLOUDY    52  40  63 N6        30.27R
PEORIA         CLOUDY    49  36  61 NW3       30.27S
LACON*         MOCLDY    48  37  64 W3        30.27S
LINCOLN*       CLOUDY    50  39  65 CALM      30.28R
SPRINGFIELD    CLOUDY    51  37  58 N7        30.28R
TAYLORVILLE    CLOUDY    46  41  81 N6        30.26F
$$

ILZ033-039-045-046-055>057-062-063-180500-
EAST-CENTRAL ILLINOIS

CITY           SKY/WX    TMP DP  RH WIND       PRES   REMARKS
CHAMPAIGN      CLOUDY    50  41  71 N6        30.26R
RANTOUL*       CLOUDY    55  40  57 CALM      30.27R
MATTOON        MOCLDY    51  45  79 CALM      30.26R
PARIS*         MOCLDY    49  40  71 CALM      30.27S
$$

ILZ079-100>102-180500-
SOUTHWEST ILLINOIS

CITY           SKY/WX    TMP DP  RH WIND       PRES   REMARKS
ALTON          CLOUDY    53  38  57 CALM      30.27S
BELLEVILLE     CLOUDY    55  42  60 N10       30.25S
CAHOKIA*       CLOUDY    54  42  64 N3        30.27R
SPARTA*        MOCLDY    54  37  54 CALM      30.26S
$$

ILZ064>066-069>071-074>076-080>082-084>086-088>090-092>094-180500-
SOUTH-CENTRAL ILLINOIS

CITY           SKY/WX    TMP DP  RH WIND       PRES   REMARKS
CARBONDALE     PTCLDY    50  42  74 CALM      30.25F
CAIRO*         MOCLDY    54  46  72 CALM      30.24F
MARION         PTCLDY    52  43  71 CALM      30.25F
MT. VERNON     PTCLDY    43  32  65 CALM      30.26S
CENTRALIA*       N/A     53  40  62 CALM      30.26R
SALEM*         PTCLDY    56  40  54 CALM      30.26S
METROPOLIS*    MOCLDY    51  42  71 CALM      30.25S
$$

ILZ067-068-072-073-078-083-087-091-180500-
SOUTHEAST ILLINOIS

CITY           SKY/WX    TMP DP  RH WIND       PRES   REMARKS
FAIRFIELD*     PTCLDY    54  43  66 CALM      30.26S
HARRISBURG*    PTCLDY    49  44  83 CALM      30.27S
ROBINSON*      PTCLDY    49  44  82 CALM      30.27S
CARMI*         PTCLDY    50  46  86 CALM      30.26S
$$

ABBREVIATIONS USED IN REMARKS
   TC - TEMPERATURE IN CELSIUS
  WCI - WIND CHILL INDEX
   HX - HEAT INDEX
  VSB - VISIBILITY
$$




USA.gov is the U.S. government's official web portal to all federal, state and local government web resources and services.